Vancouver, WA
on Tuesday, February 12, 2013

Tuesday
Previous Day Next Day
Daily Summary
 ActualAverageRecord
Temperature
Mean Temperature °F 43°F  
Max Temperature 54°F 51°F 64°F (1931)
Min Temperature 43°F 35°F 11°F (1905)
Degree Days
Heating Degree Days 16    
Month to date heating degree days 264  
Since 1 July heating degree days 2687  
Cooling Degree Days 0    
Month to date cooling degree days 0  
Year to date cooling degree days 0  
Moisture
Dew Point 43°F   
Average Humidity 81    
Maximum Humidity 96    
Minimum Humidity 66    
Precipitation
Precipitation 0.01 in 0.15 in 1.72 in (1954)
Month to date precipitation 0.18 2.01  
Year to date precipitation 3.58 7.51  
Snow
Snow 0.00 in in in ()
Month to date snowfall 0.0  
Snow Depth 0.00 in   
Wind
Wind Speed 1 mph   
Max Wind Speed 8 mph   
Max Gust Speed 10 mph   
Visibility 9 miles   
Events     

Key: T is trace of precipitation, MM is missing value
Source: NWS Daily Summary
Time(PST)TemperatureDew PointHumidity Pressure Visibility Wind DirectionWind SpeedGust SpeedPrecipitationEvents Conditions
12:14 AM 44.6°F 42.8°F 93% 30.40 in 2.0 miles East 3.5 mph - N/A   Overcast
12:32 AM 44.6°F 42.8°F 93% 30.40 in 4.0 miles Calm Calm - N/A   Overcast
12:53 AM 44.1°F 42.1°F 93% 30.40 in 5.0 miles East 3.5 mph - N/A   Overcast
1:53 AM 44.1°F 42.1°F 93% 30.41 in 6.0 miles Calm Calm - N/A   Overcast
2:41 AM 44.6°F 42.8°F 93% 30.41 in 5.0 miles Calm Calm - 0.00 in   Overcast
2:53 AM 43.0°F 41.0°F 93% 30.41 in 5.0 miles Calm Calm - 0.01 in   Overcast
3:46 AM 44.6°F 42.8°F 93% 30.40 in 7.0 miles Calm Calm - N/A   Overcast
3:53 AM 44.1°F 42.1°F 93% 30.41 in 8.0 miles Calm Calm - N/A   Overcast
4:53 AM 45.0°F 42.1°F 90% 30.40 in 10.0 miles ESE 3.5 mph - 0.00 in   Overcast
5:53 AM 46.0°F 42.1°F 86% 30.40 in 10.0 miles Calm Calm - N/A   Overcast
6:53 AM 46.0°F 42.1°F 86% 30.41 in 7.0 miles Calm Calm - N/A   Overcast
7:53 AM 46.0°F 43.0°F 89% 30.43 in 9.0 miles Calm Calm - 0.00 in   Overcast
8:53 AM 46.9°F 43.0°F 86% 30.45 in 10.0 miles Calm Calm - N/A   Overcast
9:53 AM 48.0°F 43.0°F 83% 30.46 in 10.0 miles Calm Calm - N/A   Overcast
10:53 AM 48.9°F 44.1°F 83% 30.48 in 10.0 miles Calm Calm - N/A   Overcast
11:04 AM 48.2°F 44.6°F 87% 30.48 in 10.0 miles SSW 3.5 mph - N/A   Overcast
11:38 AM 50.0°F 44.6°F 82% 30.47 in 10.0 miles Calm Calm - N/A   Overcast
11:53 AM 51.1°F 44.1°F 77% 30.47 in 10.0 miles Variable 3.5 mph - N/A   Overcast
12:53 PM 53.1°F 44.1°F 71% 30.46 in 10.0 miles Calm Calm - N/A   Overcast
1:53 PM 54.0°F 43.0°F 66% 30.43 in 10.0 miles Calm Calm - N/A   Mostly Cloudy
2:53 PM 54.0°F 42.1°F 64% 30.43 in 10.0 miles SW 3.5 mph - N/A   Overcast
3:53 PM 53.1°F 42.1°F 66% 30.44 in 10.0 miles Calm Calm - N/A   Overcast
4:53 PM 52.0°F 45.0°F 77% 30.43 in 10.0 miles Calm Calm - 0.00 in   Overcast
5:53 PM 52.0°F 43.0°F 71% 30.43 in 10.0 miles SSW 3.5 mph - N/A   Overcast
6:53 PM 52.0°F 43.0°F 71% 30.43 in 10.0 miles Calm Calm - N/A   Overcast
7:53 PM 51.1°F 43.0°F 74% 30.43 in 10.0 miles SW 6.9 mph - N/A   Overcast
8:53 PM 51.1°F 43.0°F 74% 30.44 in 10.0 miles WSW 4.6 mph - N/A   Overcast
9:53 PM 50.0°F 43.0°F 77% 30.43 in 10.0 miles Calm Calm - N/A   Overcast
10:53 PM 50.0°F 43.0°F 77% 30.43 in 10.0 miles Calm Calm - 0.00 in   Overcast
11:53 PM 50.0°F 42.1°F 74% 30.43 in 10.0 miles SW 3.5 mph - N/A   Overcast
Moon Phase
Feb. 12 Feb. 17 Feb. 25 Mar. 04 Mar. 11
Sunrise:07:16 AM (PST) Moon Rise:08:05 AM (PST)2/12
Sunset:05:33 PM (PST) Moon Set:08:53 PM (PST)2/12

Copyright © 2014 The Weather Underground, Inc.